Regional Weather Roundup
Issued by NWS

Home | Current Version | Previous Version | Graphics & Text | Print | Product List | Glossary On
Versions: 1 2 3 4 5 6 7 8 9 10 11 12 13 14 15 16 17 18 19 20 21 22 23 24 25 26 27 28 29 30 31 32 33 34 35 36 37 38 39 40 41 42 43 44 45 46 47 48
000
ASUS45 KBOI 051510
RWRID

IDAHO REGIONAL WEATHER ROUNDUP
NATIONAL WEATHER SERVICE BOISE ID
900 AM MDT SUN JUL 05 2015

NOTE: "FAIR" INDICATES FEW OR NO CLOUDS BELOW 12000 FEET
WITH NO SIGNIFICANT WEATHER AND/OR OBSTRUCTIONS TO VISIBILITY

IDZ012-014-051600-
SOUTHWEST IDAHO


CITY           SKY/WX    TMP DP  RH WIND       PRES   REMARKS
BOISE          CLOUDY    80  53  39 N6        29.89R
CALDWELL       CLOUDY    79  54  41 NE5       29.88R
MOUNTAIN HOME  CLOUDY    76  53  44 NE3       29.89R
$$

IDZ016-017-051600-
SOUTHCENTRAL IDAHO


CITY           SKY/WX    TMP DP  RH WIND       PRES   REMARKS
BURLEY         CLOUDY    69  56  62 SW20G25   29.99R
JEROME         CLOUDY    72  55  55 SE8       29.99R
TWIN FALLS     CLOUDY    74  54  49 S14       29.96R
$$

IDZ019>023-051600-
SOUTHEAST IDAHO


CITY           SKY/WX    TMP DP  RH WIND       PRES   REMARKS
IDAHO FALLS    CLOUDY    72  52  49 SW17G23   30.00R
POCATELLO      PTSUNNY   75  49  39 S14       30.00R
REXBURG        CLOUDY    69  53  56 SW10      30.00R
$$

IDZ006-010-011-018-031-032-051600-
CENTRAL IDAHO MOUNTAINS


CITY           SKY/WX    TMP DP  RH WIND       PRES   REMARKS
MCCALL         PTSUNNY   67  45  45 CALM      29.99S
HAILEY         MOSUNNY   64  52  63 CALM      30.04S
STANLEY          N/A     57  41  55 CALM      30.11S
SALMON         MOSUNNY   72  48  43 CALM      29.90S
CHALLIS        MOSUNNY   74  35  24 NW3       29.97S
$$

IDZ002-004-006-007-026-051600-
NORTHERN IDAHO


CITY           SKY/WX    TMP DP  RH WIND       PRES   REMARKS
LEWISTON       MOSUNNY   77  48  35 CALM      29.79R
LOWELL           N/A     67  55  65 CALM      29.84S
COEUR D`ALENE  SUNNY     73  48  40 N22       29.88S
MULLAN PASS    MOSUNNY   58  46  64 VRB5      30.07R
$$



USA.gov is the U.S. government's official web portal to all federal, state and local government web resources and services.